QPF
0.00 0.00 0.00 0.00 0.00 0.00 0.00 0.00 0.00 0.00 0.00 0.00 0.00 0.00 0.00 0.00 0.00 0.00 0.00 0.00 0.00 0.00 0.00 0.00 0.00 0.00 0.01 0.01 0.01 0.02 0.01 0.01 0.01 0.01 0.01 0.02 0.02 0.02 0.02 0.01 0.01 0.03
0.00 0.00 0.00 0.00 0.00 0.00 0.00 0.00 0.00 0.00 0.00 0.00 0.00 0.00 0.00 0.00 0.00 0.00 0.00 0.00 0.00 0.00 0.00 0.00 0.00 0.00 0.01 0.01 0.01 0.02 0.01 0.01 0.01 0.01 0.02 0.02 0.01 0.02 0.01 0.01 0.02 0.01
0.00 0.00 0.00 0.00 0.00 0.00 0.00 0.00 0.00 0.00 0.00 0.00 0.00 0.00 0.00 0.00 0.00 0.00 0.00 0.00 0.00 0.00 0.00 0.00 0.00 0.00 0.00 0.01 0.01 0.01 0.01 0.01 0.01 0.01 0.00 0.00 0.01 0.01 0.01 0.01 0.01 0.02
0.00 0.00 0.00 0.00 0.00 0.00 0.00 0.00 0.00 0.00 0.00 0.00 0.00 0.00 0.00 0.00 0.00 0.00 0.00 0.00 0.00 0.00 0.00 0.00 0.00 0.00 0.00 0.00 0.00 0.00 0.00 0.00 0.00 0.00 0.00 0.00 0.00 0.00 0.01 0.01 0.01 0.02
0.00 0.00 0.00 0.00 0.00 0.00 0.00 0.00 0.00 0.00 0.00 0.00 0.00 0.00 0.00 0.00 0.00 0.00 0.00 0.00 0.00 0.00 0.00 0.00 0.00 0.00 0.00 0.00 0.00 0.00 0.01 0.00 0.00 0.00 0.00 0.00 0.00 0.00 0.01 0.01 0.01 0.01
0.00 0.00 0.00 0.00 0.00 0.00 0.00 0.00 0.00 0.00 0.00 0.00 0.00 0.00 0.00 0.00 0.00 0.00 0.00 0.00 0.00 0.00 0.00 0.00 0.00 0.00 0.00 0.00 0.00 0.00 0.01 0.01 0.01 0.01 0.00 0.00 0.00 0.00 0.00 0.00 0.00 0.01
0.00 0.00 0.00 0.00 0.00 0.00 0.00 0.00 0.00 0.00 0.00 0.00 0.00 0.00 0.00 0.00 0.00 0.00 0.00 0.00 0.00 0.00 0.00 0.00 0.00 0.00 0.00 0.00 0.00 0.00 0.00 0.00 0.00 0.00 0.00 0.00 0.00 0.00 0.00 0.00 0.00 0.00
0.00 0.00 0.00 0.00 0.00 0.00 0.00 0.00 0.00 0.00 0.00 0.00 0.00 0.00 0.00 0.00 0.00 0.00 0.00 0.00 0.00 0.00 0.00 0.00 0.00 0.00 0.00 0.00 0.00 0.00 0.00 0.00 0.00 0.00 0.00 0.00 0.00 0.00 0.00 0.00 0.00 0.00
0.00 0.00 0.00 0.00 0.00 0.00 0.00 0.00 0.00 0.00 0.00 0.00 0.00 0.00 0.00 0.00 0.00 0.00 0.00 0.00 0.00 0.00 0.00 0.00 0.00 0.00 0.00 0.00 0.00 0.00 0.00 0.00 0.00 0.00 0.00 0.00 0.00 0.00 0.00 0.00 0.00 0.00
0.00 0.00 0.00 0.00 0.00 0.00 0.00 0.00 0.00 0.00 0.00 0.00 0.00 0.00 0.00 0.00 0.00 0.00 0.00 0.00 0.00 0.00 0.00 0.00 0.00 0.00 0.00 0.00 0.00 0.00 0.00 0.00 0.00 0.00 0.00 0.00 0.00 0.00 0.00 0.00 0.00 0.00
0.00 0.00 0.00 0.00 0.00 0.00 0.00 0.00 0.00 0.00 0.00 0.00 0.00 0.00 0.00 0.00 0.00 0.00 0.00 0.00 0.00 0.00 0.00 0.00 0.00 0.00 0.00 0.00 0.00 0.00 0.00 0.00 0.00 0.00 0.00 0.00 0.00 0.00 0.00 0.00 0.00 0.00
0.00 0.00 0.00 0.00 0.00 0.00 0.00 0.00 0.00 0.00 0.00 0.00 0.00 0.00 0.00 0.00 0.00 0.00 0.00 0.00 0.00 0.00 0.00 0.00 0.00 0.00 0.00 0.00 0.00 0.00 0.00 0.00 0.00 0.00 0.00 0.00 0.00 0.00 0.00 0.00 0.00 0.00
0.00 0.00 0.00 0.00 0.00 0.00 0.00 0.00 0.00 0.00 0.00 0.00 0.00 0.00 0.00 0.00 0.00 0.00 0.00 0.00 0.00 0.00 0.00 0.00 0.00 0.00 0.00 0.00 0.00 0.00 0.00 0.00 0.00 0.00 0.00 0.00 0.00 0.00 0.00 0.00 0.01 0.01
0.00 0.00 0.00 0.00 0.00 0.00 0.00 0.00 0.00 0.00 0.00 0.00 0.00 0.00 0.00 0.00 0.00 0.00 0.00 0.00 0.00 0.00 0.00 0.00 0.00 0.00 0.00 0.00 0.00 0.00 0.00 0.00 0.00 0.00 0.00 0.00 0.00 0.00 0.00 0.01 0.01 0.01
0.00 0.00 0.00 0.00 0.00 0.00 0.00 0.01 0.00 0.00 0.00 0.00 0.00 0.00 0.00 0.00 0.00 0.00 0.00 0.00 0.00 0.00 0.00 0.00 0.00 0.00 0.00 0.00 0.00 0.00 0.00 0.00 0.00 0.00 0.00 0.00 0.00 0.00 0.00 0.00 0.01 0.01
0.00 0.00 0.00 0.00 0.00 0.00 0.00 0.00 0.00 0.00 0.00 0.00 0.00 0.00 0.00 0.00 0.00 0.00 0.00 0.00 0.00 0.00 0.00 0.00 0.00 0.00 0.00 0.00 0.00 0.00 0.00 0.00 0.00 0.00 0.00 0.00 0.01 0.00 0.00 0.00 0.00 0.00
0.00 0.00 0.00 0.00 0.00 0.00 0.00 0.00 0.00 0.00 0.00 0.00 0.00 0.00 0.00 0.00 0.00 0.00 0.00 0.00 0.00 0.00 0.00 0.00 0.00 0.00 0.00 0.00 0.00 0.00 0.00 0.00 0.00 0.00 0.00 0.00 0.00 0.00 0.00 0.00 0.00 0.00
0.00 0.00 0.00 0.00 0.00 0.00 0.00 0.00 0.00 0.00 0.00 0.00 0.00 0.00 0.00 0.00 0.00 0.00 0.00 0.00 0.00 0.00 0.00 0.00 0.00 0.00 0.00 0.00 0.00 0.00 0.00 0.00 0.00 0.00 0.00 0.00 0.00 0.00 0.00 0.00 0.00 0.00
0.00 0.00 0.00 0.00 0.00 0.00 0.00 0.00 0.00 0.00 0.00 0.00 0.00 0.00 0.00 0.00 0.00 0.00 0.00 0.00 0.00 0.00 0.00 0.00 0.00 0.00 0.00 0.00 0.00 0.00 0.00 0.00 0.00 0.00 0.00 0.00 0.00 0.00 0.00 0.00 0.00 0.00
0.00 0.00 0.00 0.00 0.00 0.00 0.00 0.00 0.00 0.00 0.00 0.00 0.00 0.00 0.00 0.00 0.00 0.00 0.00 0.00 0.00 0.00 0.00 0.00 0.00 0.00 0.00 0.00 0.00 0.00 0.00 0.00 0.00 0.00 0.00 0.00 0.00 0.00 0.00 0.00 0.00 0.00
0.00 0.00 0.00 0.00 0.00 0.00 0.00 0.00 0.00 0.00 0.00 0.00 0.00 0.00 0.00 0.00 0.00 0.00 0.00 0.00 0.00 0.00 0.00 0.00 0.00 0.00 0.00 0.00 0.00 0.00 0.00 0.00 0.00 0.00 0.00 0.00 0.00 0.00 0.00 0.00 0.00 0.00
0.00 0.00 0.00 0.00 0.00 0.00 0.00 0.00 0.00 0.00 0.00 0.00 0.00 0.00 0.00 0.00 0.00 0.00 0.00 0.00 0.00 0.00 0.00 0.00 0.00 0.00 0.00 0.00 0.00 0.00 0.00 0.00 0.00 0.00 0.00 0.00 0.00 0.00 0.00 0.00 0.00 0.00
0.00 0.00 0.00 0.00 0.00 0.00 0.00 0.00 0.00 0.00 0.00 0.00 0.00 0.00 0.00 0.00 0.00 0.00 0.00 0.00 0.00 0.00 0.00 0.00 0.00 0.00 0.00 0.00 0.00 0.00 0.00 0.00 0.00 0.00 0.00 0.00 0.00 0.00 0.00 0.00 0.00 0.00
0.00 0.00 0.00 0.00 0.00 0.00 0.00 0.00 0.00 0.00 0.00 0.00 0.00 0.00 0.00 0.00 0.00 0.00 0.00 0.00 0.00 0.00 0.00 0.00 0.00 0.00 0.00 0.00 0.00 0.00 0.00 0.00 0.00 0.00 0.00 0.00 0.00 0.00 0.00 0.00 0.00 0.00
0.00 0.00 0.00 0.00 0.00 0.00 0.00 0.00 0.00 0.00 0.00 0.00 0.00 0.00 0.00 0.00 0.00 0.00 0.00 0.00 0.00 0.00 0.00 0.00 0.00 0.00 0.00 0.00 0.00 0.00 0.00 0.00 0.00 0.00 0.00 0.00 0.00 0.00 0.01 0.01 0.01 0.00
0.00 0.00 0.00 0.00 0.00 0.00 0.00 0.00 0.00 0.00 0.00 0.00 0.00 0.00 0.00 0.00 0.00 0.00 0.00 0.00 0.00 0.00 0.00 0.00 0.00 0.00 0.00 0.00 0.00 0.00 0.00 0.00 0.00 0.00 0.00 0.00 0.01 0.01 0.01 0.01 0.00 0.00
MSLP
1018.88 1018.96 1019.24 1019.40 1019.52 1019.64 1019.72 1019.80 1019.72 1019.76 1019.80 1019.72 1019.68 1019.44 1019.52 1019.68 1019.84 1019.80 1019.76 1019.60 1019.52 1019.44 1019.24 1019.00 1018.76 1018.52 1018.24 1018.00 1017.84 1017.72 1017.44 1017.28 1017.12 1016.88 1016.76 1016.64 1016.52 1016.44 1016.32 1016.16 1015.96 1015.80
1019.36 1019.40 1019.44 1019.56 1019.68 1019.80 1019.88 1019.92 1019.92 1019.84 1019.88 1020.00 1019.96 1019.80 1019.76 1020.00 1020.00 1020.00 1019.96 1019.88 1019.64 1019.60 1019.44 1019.24 1019.00 1018.76 1018.44 1018.12 1017.92 1017.80 1017.56 1017.32 1017.20 1016.88 1016.84 1016.72 1016.52 1016.32 1016.20 1016.04 1015.84 1015.52
1019.52 1019.64 1019.68 1019.76 1019.92 1020.04 1020.00 1020.04 1019.96 1020.00 1020.00 1020.16 1020.20 1020.16 1020.24 1020.20 1020.24 1020.16 1020.08 1020.12 1019.96 1019.80 1019.64 1019.48 1019.36 1019.20 1018.92 1018.60 1018.32 1018.00 1017.72 1017.52 1017.36 1017.00 1016.96 1016.88 1016.68 1016.48 1016.12 1015.92 1015.68 1015.48
1019.68 1019.68 1019.72 1019.80 1019.84 1019.92 1019.92 1019.96 1020.12 1020.16 1020.32 1020.36 1020.52 1020.56 1020.52 1020.52 1020.40 1020.32 1020.28 1020.24 1020.16 1019.96 1019.76 1019.60 1019.44 1019.16 1019.00 1018.76 1018.60 1018.32 1018.00 1017.76 1017.44 1017.24 1017.16 1016.88 1016.60 1016.36 1016.20 1016.00 1015.76 1015.44
1019.72 1019.76 1019.76 1019.84 1019.92 1020.00 1020.08 1020.24 1020.44 1020.48 1020.52 1020.60 1020.68 1020.68 1020.68 1020.64 1020.56 1020.52 1020.44 1020.16 1020.04 1019.92 1019.76 1019.56 1019.40 1019.28 1019.12 1018.92 1018.84 1018.60 1018.40 1018.12 1017.84 1017.76 1017.60 1017.36 1016.92 1016.48 1016.08 1015.96 1015.84 1015.56
1019.76 1019.76 1019.80 1019.84 1019.96 1019.96 1020.16 1020.40 1020.52 1020.52 1020.56 1020.60 1020.72 1020.72 1020.68 1020.64 1020.64 1020.60 1020.44 1020.24 1020.16 1020.00 1019.84 1019.68 1019.56 1019.48 1019.40 1019.16 1018.96 1018.72 1018.52 1018.32 1018.12 1018.00 1017.76 1017.48 1017.20 1016.96 1016.52 1016.16 1015.88 1015.64
1020.00 1020.04 1020.00 1020.00 1020.16 1020.20 1020.28 1020.48 1020.60 1020.64 1020.64 1020.72 1020.84 1021.00 1020.84 1020.76 1020.60 1020.60 1020.52 1020.40 1020.28 1020.12 1020.08 1020.00 1019.88 1019.68 1019.44 1019.16 1018.88 1018.76 1018.56 1018.48 1018.40 1018.24 1018.04 1017.72 1017.48 1017.20 1016.88 1016.40 1015.92 1015.56
1020.12 1020.16 1020.28 1020.36 1020.52 1020.52 1020.48 1020.56 1020.80 1020.96 1020.96 1020.92 1021.00 1021.08 1021.08 1020.92 1020.80 1020.76 1020.56 1020.44 1020.40 1020.40 1020.40 1020.28 1020.08 1019.80 1019.56 1019.40 1019.20 1019.04 1018.80 1018.60 1018.60 1018.48 1018.32 1018.08 1017.76 1017.40 1017.08 1016.80 1016.32 1015.88
1020.24 1020.40 1020.64 1020.84 1020.96 1020.88 1020.88 1020.92 1021.16 1021.24 1021.20 1021.24 1021.24 1021.24 1021.24 1021.24 1021.08 1020.88 1020.88 1020.80 1020.72 1020.68 1020.60 1020.48 1020.24 1020.00 1019.76 1019.68 1019.52 1019.36 1019.16 1018.88 1018.72 1018.64 1018.56 1018.36 1018.00 1017.52 1017.16 1016.92 1016.68 1016.20
1020.52 1020.76 1021.00 1021.12 1021.20 1021.28 1021.36 1021.40 1021.36 1021.44 1021.44 1021.40 1021.44 1021.48 1021.52 1021.48 1021.36 1021.24 1021.12 1021.12 1021.04 1020.84 1020.72 1020.60 1020.44 1020.16 1019.96 1019.84 1019.68 1019.52 1019.24 1018.96 1018.72 1018.64 1018.56 1018.40 1018.12 1017.84 1017.48 1017.20 1016.92 1016.56
1020.88 1020.96 1021.16 1021.36 1021.56 1021.64 1021.72 1021.56 1021.56 1021.60 1021.68 1021.64 1021.68 1021.68 1021.68 1021.56 1021.56 1021.52 1021.40 1021.28 1021.20 1021.04 1020.96 1020.80 1020.68 1020.56 1020.36 1020.12 1019.80 1019.52 1019.28 1019.00 1018.76 1018.56 1018.48 1018.28 1018.12 1018.00 1017.76 1017.44 1017.16 1016.84
1021.08 1021.16 1021.36 1021.60 1021.80 1021.96 1021.92 1021.84 1021.76 1021.72 1021.76 1021.92 1021.96 1021.84 1021.76 1021.72 1021.68 1021.72 1021.60 1021.40 1021.24 1021.16 1021.08 1021.04 1021.00 1020.92 1020.76 1020.48 1020.08 1019.64 1019.44 1019.16 1018.84 1018.64 1018.44 1018.28 1018.08 1017.84 1017.56 1017.28 1017.04 1016.80
1021.44 1021.52 1021.56 1021.84 1022.20 1022.24 1022.12 1022.00 1021.96 1021.92 1021.92 1022.08 1022.12 1022.00 1021.88 1021.80 1021.80 1021.72 1021.64 1021.36 1021.20 1021.16 1021.24 1021.32 1021.36 1021.28 1021.16 1020.88 1020.36 1019.92 1019.60 1019.12 1018.84 1018.60 1018.36 1018.32 1018.24 1018.04 1017.80 1017.64 1017.48 1017.24
1021.68 1021.80 1022.04 1022.36 1022.40 1022.40 1022.32 1022.24 1022.12 1022.12 1022.20 1022.28 1022.28 1022.16 1022.00 1021.88 1021.76 1021.60 1021.52 1021.32 1021.24 1021.24 1021.52 1021.76 1021.88 1021.84 1021.80 1021.52 1021.04 1020.44 1019.76 1019.28 1019.00 1018.76 1018.48 1018.40 1018.36 1018.28 1018.04 1017.72 1017.44 1017.28
1021.96 1022.16 1022.36 1022.56 1022.60 1022.60 1022.52 1022.40 1022.32 1022.36 1022.28 1022.20 1022.24 1022.28 1022.12 1021.92 1021.84 1021.76 1021.52 1021.32 1021.24 1021.48 1021.76 1022.12 1022.36 1022.40 1022.32 1022.24 1021.72 1021.00 1019.92 1019.44 1019.24 1019.04 1018.84 1018.68 1018.48 1018.20 1017.80 1017.44 1017.20 1017.08
1022.00 1022.40 1022.64 1022.80 1022.80 1022.80 1022.68 1022.48 1022.44 1022.40 1022.28 1022.32 1022.32 1022.20 1022.12 1022.00 1021.96 1021.92 1021.76 1021.56 1021.56 1021.68 1021.92 1022.28 1022.68 1022.80 1023.00 1022.72 1022.36 1021.76 1020.52 1019.72 1019.56 1019.36 1019.12 1018.88 1018.56 1018.20 1017.84 1017.48 1017.28 1017.16
1022.12 1022.52 1022.80 1023.00 1022.96 1022.84 1022.64 1022.44 1022.40 1022.44 1022.40 1022.32 1022.32 1022.24 1022.20 1022.24 1022.20 1022.16 1022.08 1021.92 1021.80 1021.92 1022.16 1022.36 1022.84 1023.32 1023.32 1022.80 1022.24 1021.68 1021.04 1019.96 1019.80 1019.52 1019.32 1019.04 1018.80 1018.60 1018.24 1017.80 1017.52 1017.24
1022.16 1022.64 1022.88 1023.00 1022.92 1022.80 1022.64 1022.52 1022.48 1022.44 1022.48 1022.48 1022.48 1022.44 1022.44 1022.48 1022.52 1022.48 1022.32 1022.12 1022.00 1022.16 1022.40 1022.68 1023.04 1023.68 1023.40 1022.92 1022.28 1021.68 1021.20 1020.36 1019.72 1019.60 1019.48 1019.32 1019.16 1018.88 1018.60 1018.36 1018.00 1017.56
1022.28 1022.76 1022.88 1022.88 1022.80 1022.68 1022.60 1022.48 1022.52 1022.64 1022.60 1022.60 1022.60 1022.56 1022.56 1022.72 1022.84 1022.76 1022.64 1022.40 1022.24 1022.36 1022.60 1023.00 1023.32 1023.88 1023.56 1023.04 1022.36 1021.80 1021.24 1020.52 1019.84 1019.84 1019.64 1019.56 1019.44 1019.24 1019.04 1018.80 1018.52 1018.04
1022.32 1022.68 1022.80 1022.76 1022.64 1022.56 1022.48 1022.56 1022.72 1022.80 1022.68 1022.56 1022.56 1022.64 1022.72 1022.84 1022.96 1023.04 1022.92 1022.76 1022.64 1022.60 1022.76 1023.20 1023.72 1024.12 1023.68 1023.04 1022.32 1021.80 1021.20 1020.48 1020.04 1019.96 1019.92 1019.92 1019.80 1019.64 1019.48 1019.36 1019.04 1018.60
1022.20 1022.64 1022.56 1022.60 1022.64 1022.64 1022.68 1022.80 1022.88 1022.84 1022.72 1022.68 1022.64 1022.68 1022.72 1022.84 1022.92 1022.96 1023.16 1023.08 1022.96 1022.92 1022.96 1023.28 1024.00 1024.32 1023.68 1023.08 1022.44 1021.76 1021.20 1020.36 1020.20 1020.16 1020.20 1020.24 1020.24 1020.12 1020.00 1020.00 1019.76 1019.32
1022.52 1022.60 1022.60 1022.60 1022.64 1022.68 1022.76 1022.88 1023.00 1023.04 1023.00 1023.00 1023.04 1023.12 1023.28 1023.28 1022.92 1022.96 1023.20 1023.32 1023.28 1023.16 1023.20 1023.44 1023.96 1024.36 1023.92 1023.28 1022.68 1021.92 1021.16 1020.28 1020.32 1020.36 1020.44 1020.56 1020.56 1020.52 1020.40 1020.36 1020.36 1020.16
1022.32 1022.60 1022.68 1022.68 1022.68 1022.80 1022.92 1023.04 1023.16 1023.20 1023.04 1023.04 1023.24 1023.28 1023.36 1023.40 1023.40 1023.48 1023.52 1023.52 1023.48 1023.36 1023.32 1023.56 1023.92 1024.48 1024.24 1023.64 1022.96 1022.28 1021.32 1020.44 1020.52 1020.52 1020.60 1020.72 1020.88 1020.84 1020.68 1020.68 1020.76 1020.76
1022.80 1022.84 1023.00 1023.00 1023.04 1023.08 1023.20 1023.28 1023.32 1023.28 1023.32 1023.32 1023.32 1023.36 1023.40 1023.44 1023.44 1023.64 1023.72 1023.92 1024.04 1023.84 1023.68 1023.64 1024.08 1024.56 1024.48 1024.00 1023.44 1022.64 1021.92 1020.76 1020.76 1020.80 1021.08 1021.08 1020.92 1021.04 1020.96 1020.84 1020.88 1021.00
1023.20 1023.16 1023.16 1023.12 1023.20 1023.40 1023.48 1023.48 1023.44 1023.48 1023.44 1023.36 1023.32 1023.36 1023.40 1023.40 1023.52 1023.64 1023.84 1024.04 1024.28 1024.40 1024.36 1023.92 1024.12 1024.48 1024.64 1024.40 1023.92 1023.28 1022.52 1021.36 1021.24 1021.20 1021.40 1021.40 1021.20 1021.16 1021.00 1020.88 1020.72 1020.68
1023.68 1023.56 1023.36 1023.20 1023.48 1023.72 1023.60 1023.56 1023.64 1023.64 1023.60 1023.48 1023.36 1023.28 1023.44 1023.52 1023.68 1023.88 1024.04 1024.12 1024.24 1024.36 1024.48 1024.36 1024.24 1024.44 1024.80 1024.64 1024.20 1023.68 1023.12 1022.12 1021.60 1021.56 1021.64 1021.60 1021.60 1021.44 1021.16 1021.00 1020.84 1020.68
Thickness
5650 5650 5649 5648 5647 5646 5645 5645 5645 5645 5644 5643 5644 5644 5644 5642 5640 5640 5640 5640 5640 5640 5641 5641 5642 5642 5644 5645 5645 5646 5647 5647 5647 5648 5648 5648 5648 5649 5648 5648 5650 5650
5645 5645 5645 5644 5643 5642 5641 5641 5641 5641 5641 5640 5640 5640 5640 5637 5636 5636 5635 5636 5636 5636 5636 5637 5637 5638 5639 5641 5642 5642 5643 5644 5644 5645 5645 5645 5645 5646 5646 5646 5647 5648
5642 5641 5641 5640 5640 5639 5638 5638 5638 5638 5637 5636 5636 5635 5634 5633 5632 5632 5631 5631 5631 5631 5632 5632 5633 5633 5634 5635 5636 5637 5639 5639 5640 5641 5641 5641 5641 5642 5643 5644 5644 5646
5638 5638 5639 5638 5637 5636 5636 5636 5635 5634 5634 5632 5631 5630 5629 5628 5628 5629 5628 5628 5628 5628 5629 5628 5629 5630 5630 5631 5631 5632 5634 5634 5635 5636 5635 5636 5637 5639 5640 5640 5640 5642
5635 5635 5635 5635 5634 5634 5633 5632 5630 5630 5630 5628 5627 5626 5626 5625 5625 5625 5625 5625 5625 5625 5625 5626 5626 5626 5626 5626 5626 5627 5628 5628 5629 5629 5629 5630 5632 5634 5636 5636 5636 5637
5632 5632 5632 5631 5631 5631 5630 5628 5627 5627 5626 5625 5623 5622 5623 5622 5621 5622 5621 5621 5621 5621 5622 5621 5621 5621 5621 5621 5622 5622 5623 5623 5623 5623 5624 5625 5625 5627 5629 5631 5632 5632
5627 5628 5628 5627 5627 5627 5626 5625 5624 5623 5622 5621 5620 5618 5618 5619 5618 5618 5617 5617 5617 5616 5616 5616 5616 5616 5616 5617 5617 5617 5618 5618 5618 5617 5617 5619 5620 5620 5621 5624 5627 5628
5624 5624 5623 5622 5622 5622 5622 5621 5619 5618 5617 5617 5616 5614 5613 5614 5614 5613 5613 5613 5612 5611 5610 5610 5610 5611 5611 5612 5612 5612 5612 5612 5612 5611 5612 5612 5613 5615 5616 5617 5619 5622
5620 5619 5617 5616 5616 5616 5616 5616 5615 5613 5612 5612 5611 5610 5609 5608 5609 5609 5608 5607 5606 5605 5605 5604 5604 5606 5605 5605 5605 5605 5606 5606 5606 5606 5606 5606 5607 5609 5611 5611 5612 5614
5615 5614 5612 5611 5610 5610 5610 5610 5609 5609 5608 5607 5606 5605 5604 5603 5603 5603 5602 5601 5600 5600 5600 5599 5599 5599 5599 5599 5599 5600 5600 5601 5602 5602 5601 5601 5601 5603 5604 5604 5605 5607
5609 5609 5607 5606 5605 5604 5604 5605 5605 5604 5603 5603 5602 5600 5600 5599 5598 5597 5596 5596 5595 5595 5594 5594 5593 5593 5593 5593 5594 5595 5595 5596 5597 5596 5596 5596 5596 5596 5597 5598 5599 5599
5604 5604 5603 5601 5600 5599 5599 5600 5600 5600 5599 5597 5596 5596 5595 5594 5593 5592 5591 5591 5591 5590 5589 5588 5587 5586 5586 5586 5588 5589 5590 5590 5591 5591 5591 5591 5591 5591 5592 5592 5592 5592
5598 5598 5598 5595 5594 5594 5594 5595 5595 5595 5594 5592 5591 5591 5590 5589 5589 5587 5587 5586 5586 5585 5583 5581 5579 5578 5578 5579 5580 5582 5583 5585 5586 5586 5586 5585 5585 5585 5584 5584 5585 5585
5593 5592 5591 5589 5589 5589 5589 5590 5590 5590 5589 5587 5586 5586 5585 5585 5584 5583 5583 5582 5581 5580 5576 5573 5571 5570 5569 5570 5571 5574 5577 5579 5579 5579 5580 5579 5577 5577 5577 5578 5578 5578
5588 5587 5585 5583 5584 5584 5584 5585 5585 5585 5584 5583 5582 5581 5581 5580 5579 5578 5578 5578 5576 5573 5570 5566 5563 5561 5561 5560 5562 5566 5570 5572 5572 5571 5572 5571 5571 5571 5572 5573 5573 5572
5584 5582 5580 5578 5578 5579 5580 5581 5580 5580 5579 5578 5577 5577 5576 5576 5574 5573 5572 5571 5570 5567 5564 5560 5556 5553 5552 5553 5554 5557 5561 5565 5564 5563 5563 5563 5563 5564 5564 5566 5566 5565
5580 5577 5575 5573 5574 5575 5576 5577 5576 5575 5575 5574 5573 5573 5571 5570 5568 5567 5565 5565 5563 5560 5557 5554 5549 5545 5545 5547 5548 5549 5552 5556 5556 5556 5555 5554 5554 5555 5555 5556 5557 5557
5575 5572 5570 5570 5570 5571 5572 5572 5572 5571 5570 5569 5568 5567 5565 5564 5562 5560 5559 5558 5557 5554 5550 5547 5542 5539 5538 5540 5542 5542 5544 5548 5549 5548 5547 5546 5545 5545 5545 5546 5547 5548
5570 5567 5566 5567 5567 5568 5569 5569 5567 5566 5565 5564 5563 5562 5560 5557 5554 5553 5552 5551 5551 5548 5544 5540 5535 5532 5532 5534 5535 5536 5538 5540 5541 5540 5539 5537 5536 5535 5535 5535 5535 5536
5567 5565 5563 5564 5564 5564 5565 5564 5562 5561 5560 5560 5559 5556 5555 5552 5549 5547 5545 5544 5544 5541 5537 5533 5528 5525 5526 5527 5529 5530 5532 5534 5534 5532 5531 5528 5527 5526 5525 5524 5523 5524
5562 5561 5561 5561 5560 5560 5560 5559 5557 5556 5555 5555 5554 5551 5549 5546 5544 5542 5539 5537 5536 5533 5531 5526 5521 5519 5519 5522 5523 5524 5526 5528 5527 5524 5522 5519 5516 5515 5513 5511 5510 5511
5558 5557 5557 5557 5556 5556 5555 5553 5552 5551 5550 5548 5547 5544 5542 5540 5539 5537 5533 5531 5529 5527 5525 5521 5515 5513 5513 5514 5516 5518 5521 5522 5520 5517 5514 5510 5506 5504 5502 5500 5497 5497
5553 5552 5551 5551 5551 5550 5549 5548 5546 5545 5545 5543 5541 5538 5536 5534 5532 5529 5526 5524 5522 5520 5519 5515 5510 5506 5506 5508 5509 5511 5514 5515 5513 5509 5505 5501 5498 5495 5492 5490 5486 5483
5546 5546 5546 5546 5546 5544 5543 5542 5541 5539 5539 5538 5536 5534 5532 5529 5527 5524 5520 5517 5515 5513 5512 5509 5504 5500 5499 5500 5501 5502 5505 5508 5506 5501 5496 5492 5490 5486 5483 5480 5477 5473
5539 5539 5540 5541 5540 5538 5538 5537 5536 5534 5533 5533 5532 5529 5527 5525 5522 5519 5515 5512 5508 5505 5504 5503 5500 5495 5493 5493 5494 5494 5497 5499 5497 5493 5488 5484 5481 5478 5475 5472 5469 5466
5533 5533 5535 5535 5534 5532 5532 5532 5531 5530 5528 5528 5526 5524 5522 5519 5517 5514 5510 5507 5504 5500 5498 5496 5494 5491 5488 5486 5487 5487 5488 5490 5489 5485 5481 5477 5473 5471 5468 5464 5461 5458